Time,TemperatureF,DewpointF,PressureIn,WindDirection,WindDirectionDegrees,WindSpeedMPH,WindSpeedGustMPH,Humidity,HourlyPrecipIn,Conditions,Clouds,dailyrainin,SolarRadiationWatts/m^2,SoftwareType,DateUTC
2013-07-25 00:00:00,66.3,42.5,29.91,North,0,0.0,0.0,42,0.00,CLR,,0.00,0.0,WeatherDisplay:10.37,2013-07-25 04:00:00,
2013-07-25 00:01:00,66.3,42.5,29.91,North,0,0.0,0.0,42,0.00,CLR,,0.00,0.0,WeatherDisplay:10.37,2013-07-25 04:01:00,
2013-07-25 00:06:00,66.2,43.6,29.91,North,0,0.0,0.0,44,0.00,CLR,,0.00,0.0,WeatherDisplay:10.37,2013-07-25 04:06:00,
2013-07-25 00:11:00,66.1,41.7,29.91,North,0,0.0,0.0,41,0.00,CLR,,0.00,0.0,WeatherDisplay:10.37,2013-07-25 04:11:00,
2013-07-25 00:16:00,65.9,40.9,29.91,North,0,0.0,0.0,40,0.00,CLR,,0.00,0.0,WeatherDisplay:10.37,2013-07-25 04:16:00,
2013-07-25 00:21:00,65.8,40.8,29.91,North,0,0.0,0.0,40,0.00,CLR,,0.00,0.0,WeatherDisplay:10.37,2013-07-25 04:21:00,
2013-07-25 00:26:00,65.7,41.3,29.91,North,0,0.0,0.0,41,0.00,CLR,,0.00,0.0,WeatherDisplay:10.37,2013-07-25 04:26:00,
2013-07-25 00:31:00,65.6,41.9,29.91,North,0,0.0,0.0,42,0.00,CLR,,0.00,0.0,WeatherDisplay:10.37,2013-07-25 04:31:00,
2013-07-25 00:37:00,65.4,39.8,29.91,North,0,0.0,0.0,39,0.00,CLR,,0.00,0.0,WeatherDisplay:10.37,2013-07-25 04:37:00,
2013-07-25 00:42:00,65.2,41.5,29.92,North,0,0.0,0.0,42,0.00,CLR,,0.00,0.0,WeatherDisplay:10.37,2013-07-25 04:42:00,
2013-07-25 00:47:00,65.0,42.5,29.92,North,0,0.0,0.0,44,0.00,CLR,,0.00,0.0,WeatherDisplay:10.37,2013-07-25 04:47:00,
2013-07-25 00:52:00,64.9,43.0,29.92,North,0,0.0,0.0,45,0.00,CLR,,0.00,0.0,WeatherDisplay:10.37,2013-07-25 04:52:00,
2013-07-25 00:57:00,64.7,44.0,29.91,North,0,0.0,0.0,47,0.00,CLR,,0.00,0.0,WeatherDisplay:10.37,2013-07-25 04:57:00,
2013-07-25 01:02:00,64.5,43.3,29.92,North,0,0.0,0.0,46,0.00,CLR,,0.00,0.0,WeatherDisplay:10.37,2013-07-25 05:02:00,
2013-07-25 01:07:00,64.2,44.1,29.92,North,0,0.0,0.0,48,0.00,CLR,,0.00,0.0,WeatherDisplay:10.37,2013-07-25 05:07:00,
2013-07-25 01:12:00,64.0,42.8,29.92,North,0,0.0,0.0,46,0.00,CLR,,0.00,0.0,WeatherDisplay:10.37,2013-07-25 05:12:00,
2013-07-25 01:17:00,63.9,43.3,29.92,North,0,0.0,0.0,47,0.00,CLR,,0.00,0.0,WeatherDisplay:10.37,2013-07-25 05:17:00,
2013-07-25 01:22:00,63.6,44.1,29.92,North,0,0.0,0.0,49,0.00,CLR,,0.00,0.0,WeatherDisplay:10.37,2013-07-25 05:22:00,
2013-07-25 01:27:00,63.5,44.0,29.92,North,0,0.0,0.0,49,0.00,CLR,,0.00,0.0,WeatherDisplay:10.37,2013-07-25 05:27:00,
2013-07-25 01:32:00,63.2,43.7,29.92,North,0,0.0,0.0,49,0.00,CLR,,0.00,0.0,WeatherDisplay:10.37,2013-07-25 05:32:00,
2013-07-25 01:37:00,63.0,43.5,29.93,North,0,0.0,0.0,49,0.00,CLR,,0.00,0.0,WeatherDisplay:10.37,2013-07-25 05:37:00,
2013-07-25 01:42:00,62.9,43.4,29.93,North,0,0.0,0.0,49,0.00,CLR,,0.00,0.0,WeatherDisplay:10.37,2013-07-25 05:42:00,
2013-07-25 01:47:00,62.6,42.1,29.93,North,0,0.0,0.0,47,0.00,CLR,,0.00,0.0,WeatherDisplay:10.37,2013-07-25 05:47:00,
2013-07-25 01:52:00,62.5,42.0,29.93,North,0,0.0,0.0,47,0.00,CLR,,0.00,0.0,WeatherDisplay:10.37,2013-07-25 05:52:00,
2013-07-25 01:57:00,62.3,39.5,29.93,North,0,0.0,0.0,43,0.00,CLR,,0.00,0.0,WeatherDisplay:10.37,2013-07-25 05:57:00,
2013-07-25 02:02:00,62.1,41.6,29.93,North,0,0.0,0.0,47,0.00,CLR,,0.00,0.0,WeatherDisplay:10.37,2013-07-25 06:02:00,
2013-07-25 02:07:00,62.0,42.1,29.92,North,0,0.0,0.0,48,0.00,CLR,,0.00,0.0,WeatherDisplay:10.37,2013-07-25 06:07:00,
2013-07-25 02:12:00,61.8,40.8,29.92,North,0,0.0,0.0,46,0.00,CLR,,0.00,0.0,WeatherDisplay:10.37,2013-07-25 06:12:00,
2013-07-25 02:17:00,61.6,42.8,29.92,North,0,0.0,0.0,50,0.00,CLR,,0.00,0.0,WeatherDisplay:10.37,2013-07-25 06:17:00,
2013-07-25 02:22:00,61.5,42.2,29.92,North,0,0.0,0.0,49,0.00,CLR,,0.00,0.0,WeatherDisplay:10.37,2013-07-25 06:22:00,
2013-07-25 02:27:00,61.3,42.0,29.92,North,0,0.0,0.0,49,0.00,CLR,,0.00,0.0,WeatherDisplay:10.37,2013-07-25 06:27:00,
2013-07-25 02:32:00,61.1,44.3,29.93,North,0,0.0,0.0,54,0.00,CLR,,0.00,0.0,WeatherDisplay:10.37,2013-07-25 06:32:00,
2013-07-25 02:37:00,61.0,43.7,29.93,North,0,0.0,0.0,53,0.00,CLR,,0.00,0.0,WeatherDisplay:10.37,2013-07-25 06:37:00,
2013-07-25 02:42:00,60.9,43.1,29.92,North,0,0.0,0.0,52,0.00,CLR,,0.00,0.0,WeatherDisplay:10.37,2013-07-25 06:42:00,
2013-07-25 02:47:00,60.7,43.9,29.92,North,0,0.0,0.0,54,0.00,CLR,,0.00,0.0,WeatherDisplay:10.37,2013-07-25 06:47:00,
2013-07-25 02:52:00,60.5,43.8,29.93,North,0,0.0,0.0,54,0.00,CLR,,0.00,0.0,WeatherDisplay:10.37,2013-07-25 06:52:00,
2013-07-25 02:57:00,60.4,42.7,29.93,North,0,0.0,0.0,52,0.00,CLR,,0.00,0.0,WeatherDisplay:10.37,2013-07-25 06:57:00,
2013-07-25 03:02:00,60.3,41.6,29.93,North,0,0.0,0.0,50,0.00,CLR,,0.00,0.0,WeatherDisplay:10.37,2013-07-25 07:02:00,
2013-07-25 03:07:00,60.2,41.5,29.93,North,0,0.0,0.0,50,0.00,CLR,,0.00,0.0,WeatherDisplay:10.37,2013-07-25 07:07:00,
2013-07-25 03:12:00,60.0,40.8,29.93,North,0,0.0,0.0,49,0.00,CLR,,0.00,0.0,WeatherDisplay:10.37,2013-07-25 07:12:00,
2013-07-25 03:17:00,60.0,38.6,29.93,North,0,0.0,0.0,45,0.00,CLR,,0.00,0.0,WeatherDisplay:10.37,2013-07-25 07:17:00,
2013-07-25 03:22:00,59.9,39.1,29.93,North,0,0.0,0.0,46,0.00,CLR,,0.00,0.0,WeatherDisplay:10.37,2013-07-25 07:22:00,
2013-07-25 03:27:00,59.8,40.6,29.94,North,0,0.0,0.0,49,0.00,CLR,,0.00,0.0,WeatherDisplay:10.37,2013-07-25 07:27:00,
2013-07-25 03:32:00,59.7,40.0,29.93,North,0,0.0,0.0,48,0.00,CLR,,0.00,0.0,WeatherDisplay:10.37,2013-07-25 07:32:00,
2013-07-25 03:37:00,59.7,40.0,29.94,North,0,0.0,0.0,48,0.00,CLR,,0.00,0.0,WeatherDisplay:10.37,2013-07-25 07:37:00,
2013-07-25 03:42:00,59.6,39.3,29.94,North,0,0.0,0.0,47,0.00,CLR,,0.00,0.0,WeatherDisplay:10.37,2013-07-25 07:42:00,
2013-07-25 03:47:00,59.5,39.2,29.94,North,0,0.0,0.0,47,0.00,CLR,,0.00,0.0,WeatherDisplay:10.37,2013-07-25 07:47:00,
2013-07-25 03:52:00,59.4,38.0,29.94,North,0,0.0,0.0,45,0.00,CLR,,0.00,0.0,WeatherDisplay:10.37,2013-07-25 07:52:00,
2013-07-25 03:57:00,59.3,37.9,29.94,North,0,0.0,0.0,45,0.00,CLR,,0.00,0.0,WeatherDisplay:10.37,2013-07-25 07:57:00,
2013-07-25 04:02:00,59.2,39.0,29.94,North,0,0.0,0.0,47,0.00,CLR,,0.00,0.0,WeatherDisplay:10.37,2013-07-25 08:02:00,
2013-07-25 04:07:00,59.1,39.4,29.94,North,0,0.0,0.0,48,0.00,CLR,,0.00,0.0,WeatherDisplay:10.37,2013-07-25 08:07:00,
2013-07-25 04:12:00,59.0,40.4,29.94,North,0,0.0,0.0,50,0.00,CLR,,0.00,0.0,WeatherDisplay:10.37,2013-07-25 08:12:00,
2013-07-25 04:17:00,58.9,39.2,29.94,North,0,0.0,0.0,48,0.00,CLR,,0.00,0.0,WeatherDisplay:10.37,2013-07-25 08:17:00,
2013-07-25 04:22:00,58.9,38.1,29.94,North,0,0.0,0.0,46,0.00,CLR,,0.00,0.0,WeatherDisplay:10.37,2013-07-25 08:22:00,
2013-07-25 04:27:00,58.8,37.5,29.95,North,0,0.0,0.0,45,0.00,CLR,,0.00,0.0,WeatherDisplay:10.37,2013-07-25 08:27:00,
2013-07-25 04:32:00,58.7,36.8,29.95,North,0,0.0,0.0,44,0.00,CLR,,0.00,0.0,WeatherDisplay:10.37,2013-07-25 08:32:00,
2013-07-25 04:37:00,58.7,36.8,29.95,North,0,0.0,0.0,44,0.00,CLR,,0.00,0.0,WeatherDisplay:10.37,2013-07-25 08:37:00,
2013-07-25 04:42:00,58.5,35.5,29.95,North,0,0.0,0.0,42,0.00,CLR,,0.00,0.0,WeatherDisplay:10.37,2013-07-25 08:42:00,
2013-07-25 04:47:00,58.5,34.9,29.95,North,0,0.0,0.0,41,0.00,CLR,,0.00,0.0,WeatherDisplay:10.37,2013-07-25 08:47:00,
2013-07-25 04:52:00,58.4,35.4,29.95,North,0,0.0,0.0,42,0.00,CLR,,0.00,0.0,WeatherDisplay:10.37,2013-07-25 08:52:00,
2013-07-25 04:57:00,58.3,36.5,29.96,North,0,0.0,0.0,44,0.00,CLR,,0.00,0.0,WeatherDisplay:10.37,2013-07-25 08:57:00,
2013-07-25 05:02:00,58.3,34.7,29.96,North,0,0.0,0.0,41,0.00,OVC,,0.00,0.0,WeatherDisplay:10.37,2013-07-25 09:02:00,
2013-07-25 05:07:00,58.2,34.6,29.96,North,0,0.0,0.0,41,0.00,OVC,,0.00,0.0,WeatherDisplay:10.37,2013-07-25 09:07:00,
2013-07-25 05:12:00,58.2,34.0,29.96,North,0,0.0,0.0,40,0.00,OVC,,0.00,0.0,WeatherDisplay:10.37,2013-07-25 09:12:00,
2013-07-25 05:17:00,58.1,33.2,29.96,North,0,0.0,0.0,39,0.00,OVC,,0.00,0.0,WeatherDisplay:10.37,2013-07-25 09:17:00,
2013-07-25 05:22:00,58.1,33.9,29.96,North,0,0.0,0.0,40,0.00,OVC,,0.00,0.0,WeatherDisplay:10.37,2013-07-25 09:22:00,
2013-07-25 05:27:00,58.0,35.0,29.96,North,0,0.0,0.0,42,0.00,OVC,,0.00,0.0,WeatherDisplay:10.37,2013-07-25 09:27:00,
2013-07-25 05:32:00,57.9,34.9,29.97,North,0,0.0,0.0,42,0.00,OVC,,0.00,0.0,WeatherDisplay:10.37,2013-07-25 09:32:00,
2013-07-25 05:37:00,57.9,34.3,29.96,North,0,0.0,0.0,41,0.00,OVC,,0.00,0.0,WeatherDisplay:10.37,2013-07-25 09:37:00,
2013-07-25 05:42:00,57.9,31.8,29.97,North,0,0.0,0.0,37,0.00,OVC,,0.00,0.0,WeatherDisplay:10.37,2013-07-25 09:42:00,
2013-07-25 05:47:00,57.8,31.0,29.97,North,0,0.0,0.0,36,0.00,OVC,,0.00,0.0,WeatherDisplay:10.37,2013-07-25 09:47:00,
2013-07-25 05:52:00,57.8,30.3,29.97,North,0,0.0,0.0,35,0.00,OVC,,0.00,0.0,WeatherDisplay:10.37,2013-07-25 09:52:00,
2013-07-25 05:53:00,57.8,30.3,29.97,North,0,0.0,0.0,35,0.00,OVC,,0.00,0.0,WeatherDisplay:10.37,2013-07-25 09:53:00,
2013-07-25 05:58:00,57.7,30.2,29.97,North,0,0.0,0.0,35,0.00,OVC,,0.00,0.0,WeatherDisplay:10.37,2013-07-25 09:58:00,
2013-07-25 06:03:00,57.7,30.9,29.97,North,0,0.0,0.0,36,0.00,OVC,,0.00,0.0,WeatherDisplay:10.37,2013-07-25 10:03:00,
2013-07-25 06:08:00,57.7,30.2,29.97,North,0,0.0,0.0,35,0.00,BKN,,0.00,5.0,WeatherDisplay:10.37,2013-07-25 10:08:00,
2013-07-25 06:13:00,57.6,30.1,29.97,North,0,0.0,0.0,35,0.00,BKN,,0.00,12.0,WeatherDisplay:10.37,2013-07-25 10:13:00,
2013-07-25 06:18:00,57.6,29.4,29.98,North,0,0.0,0.0,34,0.00,BKN,,0.00,14.0,WeatherDisplay:10.37,2013-07-25 10:18:00,
2013-07-25 06:23:00,57.6,28.7,29.98,North,0,0.0,0.0,33,0.00,BKN,,0.00,12.0,WeatherDisplay:10.37,2013-07-25 10:23:00,
2013-07-25 06:28:00,57.6,27.9,29.98,North,0,0.0,0.0,32,0.00,BKN,,0.00,11.0,WeatherDisplay:10.37,2013-07-25 10:28:00,
2013-07-25 06:33:00,57.6,27.2,29.98,North,0,0.0,0.0,31,0.00,BKN,,0.00,14.0,WeatherDisplay:10.37,2013-07-25 10:33:00,
2013-07-25 06:38:00,57.6,26.4,29.98,North,0,0.0,0.0,30,0.00,BKN,,0.00,12.0,WeatherDisplay:10.37,2013-07-25 10:38:00,
2013-07-25 06:43:00,57.6,26.4,29.98,North,0,0.0,0.0,30,0.00,BKN,,0.00,21.0,WeatherDisplay:10.37,2013-07-25 10:43:00,
2013-07-25 06:48:00,57.6,26.4,29.98,North,0,0.0,0.0,30,0.00,BKN,,0.00,32.0,WeatherDisplay:10.37,2013-07-25 10:48:00,
2013-07-25 06:53:00,57.6,24.7,29.99,North,0,0.0,0.0,28,0.00,BKN,,0.00,14.0,WeatherDisplay:10.37,2013-07-25 10:53:00,
2013-07-25 06:58:00,57.6,23.8,29.99,North,0,0.0,0.0,27,0.00,BKN,,0.00,18.0,WeatherDisplay:10.37,2013-07-25 10:58:00,
2013-07-25 07:03:00,57.6,23.8,29.99,North,0,0.0,0.0,27,0.00,BKN,,0.00,19.0,WeatherDisplay:10.37,2013-07-25 11:03:00,
2013-07-25 07:08:00,57.6,23.8,29.99,North,0,0.0,0.0,27,0.00,BKN,,0.00,33.0,WeatherDisplay:10.37,2013-07-25 11:08:00,
2013-07-25 07:13:00,57.6,23.8,29.99,North,0,0.0,0.0,27,0.00,BKN,,0.00,28.0,WeatherDisplay:10.37,2013-07-25 11:13:00,
2013-07-25 07:18:00,57.6,23.8,30.00,North,0,0.0,0.0,27,0.00,BKN,,0.00,30.0,WeatherDisplay:10.37,2013-07-25 11:18:00,
2013-07-25 07:23:00,57.6,23.8,30.00,North,0,0.0,0.0,27,0.00,BKN,,0.00,23.0,WeatherDisplay:10.37,2013-07-25 11:23:00,
2013-07-25 07:28:00,57.6,25.5,30.00,North,0,0.0,0.0,29,0.00,BKN,,0.00,21.0,WeatherDisplay:10.37,2013-07-25 11:28:00,
2013-07-25 07:33:00,57.6,25.5,30.00,North,0,0.0,0.0,29,0.00,BKN,,0.00,9.0,WeatherDisplay:10.37,2013-07-25 11:33:00,
2013-07-25 07:38:00,57.6,22.9,30.00,North,0,0.0,0.0,26,0.00,OVC,,0.00,11.0,WeatherDisplay:10.37,2013-07-25 11:38:00,
2013-07-25 07:43:00,57.6,21.0,30.00,North,0,0.0,0.0,24,0.00,OVC,,0.00,28.0,WeatherDisplay:10.37,2013-07-25 11:43:00,
2013-07-25 07:48:00,57.6,19.0,30.00,North,0,0.0,0.0,22,0.00,BKN,,0.00,32.0,WeatherDisplay:10.37,2013-07-25 11:48:00,
2013-07-25 07:53:00,57.6,20.0,30.00,North,0,0.0,0.0,23,0.00,BKN,,0.00,42.0,WeatherDisplay:10.37,2013-07-25 11:53:00,
2013-07-25 07:58:00,57.6,16.8,30.01,North,0,0.0,0.0,20,0.00,BKN,,0.00,56.0,WeatherDisplay:10.37,2013-07-25 11:58:00,
2013-07-25 08:03:00,57.6,16.8,30.01,North,0,0.0,0.0,20,0.00,BKN,,0.00,46.0,WeatherDisplay:10.37,2013-07-25 12:03:00,
2013-07-25 08:08:00,57.6,16.8,30.02,North,0,0.0,0.0,20,0.00,BKN,,0.00,25.0,WeatherDisplay:10.37,2013-07-25 12:08:00,
2013-07-25 08:13:00,57.6,19.0,30.02,North,0,0.0,0.0,22,0.00,BKN,,0.00,39.0,WeatherDisplay:10.37,2013-07-25 12:13:00,
2013-07-25 08:18:00,57.7,16.8,30.02,North,0,0.0,0.0,20,0.00,BKN,,0.00,54.0,WeatherDisplay:10.37,2013-07-25 12:18:00,
2013-07-25 08:23:00,57.7,16.8,30.02,North,0,0.0,0.0,20,0.00,BKN,,0.00,33.0,WeatherDisplay:10.37,2013-07-25 12:23:00,
2013-07-25 08:28:00,57.8,15.7,30.02,North,0,0.0,0.0,19,0.00,BKN,,0.00,25.0,WeatherDisplay:10.37,2013-07-25 12:28:00,
2013-07-25 08:33:00,57.8,14.5,30.02,North,0,0.0,0.0,18,0.00,OVC,,0.00,25.0,WeatherDisplay:10.37,2013-07-25 12:33:00,
2013-07-25 08:38:00,57.8,13.2,30.02,North,0,0.0,0.0,17,0.00,OVC,,0.00,25.0,WeatherDisplay:10.37,2013-07-25 12:38:00,
2013-07-25 08:43:00,57.8,15.7,30.02,North,0,0.0,0.0,19,0.00,OVC,,0.00,28.0,WeatherDisplay:10.37,2013-07-25 12:43:00,
2013-07-25 08:48:00,57.8,14.5,30.02,North,0,0.0,0.0,18,0.00,OVC,,0.00,32.0,WeatherDisplay:10.37,2013-07-25 12:48:00,
2013-07-25 08:53:00,57.8,10.4,30.02,North,0,0.0,0.0,15,0.00,BKN,,0.00,44.0,WeatherDisplay:10.37,2013-07-25 12:53:00,
2013-07-25 08:58:00,57.8,8.8,30.02,North,0,0.0,0.0,14,0.00,BKN,,0.00,49.0,WeatherDisplay:10.37,2013-07-25 12:58:00,
2013-07-25 09:03:00,57.9,7.3,30.03,North,0,0.0,0.0,13,0.00,BKN,,0.00,44.0,WeatherDisplay:10.37,2013-07-25 13:03:00,
2013-07-25 09:08:00,57.9,7.3,30.02,North,0,0.0,0.0,13,0.00,BKN,,0.00,49.0,WeatherDisplay:10.37,2013-07-25 13:08:00,
2013-07-25 09:13:00,57.9,7.3,30.02,North,0,0.0,0.0,13,0.00,BKN,,0.00,74.0,WeatherDisplay:10.37,2013-07-25 13:13:00,
2013-07-25 09:18:00,58.0,3.7,30.02,North,0,0.0,0.0,11,0.00,BKN,,0.00,56.0,WeatherDisplay:10.37,2013-07-25 13:18:00,
2013-07-25 09:23:00,58.0,5.6,30.02,North,0,0.0,0.0,12,0.00,BKN,,0.00,51.0,WeatherDisplay:10.37,2013-07-25 13:23:00,
2013-07-25 09:28:00,58.1,3.8,30.03,North,0,0.0,0.0,11,0.00,BKN,,0.00,63.0,WeatherDisplay:10.37,2013-07-25 13:28:00,
2013-07-25 09:33:00,58.2,-0.5,30.03,North,0,0.0,0.0,9,0.00,BKN,,0.00,49.0,WeatherDisplay:10.37,2013-07-25 13:33:00,
2013-07-25 09:38:00,58.2,1.8,30.03,North,0,0.0,0.0,10,0.00,BKN,,0.00,54.0,WeatherDisplay:10.37,2013-07-25 13:38:00,
2013-07-25 09:43:00,58.3,-5.7,30.03,North,0,0.0,0.0,7,0.00,BKN,,0.00,46.0,WeatherDisplay:10.37,2013-07-25 13:43:00,
2013-07-25 09:48:00,58.4,-2.8,30.03,North,0,0.0,0.0,8,0.00,BKN,,0.00,49.0,WeatherDisplay:10.37,2013-07-25 13:48:00,
2013-07-25 09:53:00,58.4,-5.6,30.04,North,0,0.0,0.0,7,0.00,BKN,,0.00,46.0,WeatherDisplay:10.37,2013-07-25 13:53:00,
2013-07-25 09:58:00,58.5,-12.4,30.03,North,0,0.0,0.0,5,0.00,BKN,,0.00,51.0,WeatherDisplay:10.37,2013-07-25 13:58:00,
2013-07-25 10:03:00,58.5,-12.4,30.04,North,0,0.0,0.0,5,0.00,BKN,,0.00,46.0,WeatherDisplay:10.37,2013-07-25 14:03:00,
2013-07-25 10:08:00,58.6,-12.3,30.03,North,0,0.0,0.0,5,0.00,OVC,,0.00,40.0,WeatherDisplay:10.37,2013-07-25 14:08:00,
2013-07-25 10:13:00,58.6,-12.3,30.04,North,0,0.0,0.0,5,0.00,OVC,,0.00,33.0,WeatherDisplay:10.37,2013-07-25 14:13:00,
2013-07-25 10:18:00,58.6,-22.3,30.04,North,0,0.0,0.0,3,0.00,OVC,,0.00,49.0,WeatherDisplay:10.37,2013-07-25 14:18:00,
2013-07-25 10:23:00,58.8,-22.2,30.04,North,0,0.0,0.0,3,0.00,BKN,,0.00,65.0,WeatherDisplay:10.37,2013-07-25 14:23:00,
2013-07-25 10:28:00,58.8,-22.2,30.04,North,0,0.0,0.0,3,0.00,BKN,,0.00,47.0,WeatherDisplay:10.37,2013-07-25 14:28:00,
2013-07-25 10:33:00,58.9,-22.1,30.04,North,0,0.0,0.0,3,0.00,BKN,,0.00,65.0,WeatherDisplay:10.37,2013-07-25 14:33:00,
2013-07-25 10:38:00,59.1,-22.0,30.04,North,0,0.0,0.0,3,0.00,BKN,,0.00,74.0,WeatherDisplay:10.37,2013-07-25 14:38:00,
2013-07-25 10:43:00,59.2,-21.9,30.04,North,0,0.0,0.0,3,0.01,RA,,0.01,84.0,WeatherDisplay:10.37,2013-07-25 14:43:00,
2013-07-25 10:48:00,59.3,-21.8,30.03,North,0,0.0,0.0,3,0.02,RA,,0.02,121.0,WeatherDisplay:10.37,2013-07-25 14:48:00,
2013-07-25 10:53:00,59.4,-21.8,30.03,North,0,0.0,0.0,3,0.02,RA,,0.02,125.0,WeatherDisplay:10.37,2013-07-25 14:53:00,
2013-07-25 10:58:00,59.6,-21.6,30.04,North,0,0.0,0.0,3,0.02,BKN,,0.02,111.0,WeatherDisplay:10.37,2013-07-25 14:58:00,
2013-07-25 11:03:00,59.8,-21.5,30.04,North,0,0.0,0.0,3,0.02,BKN,,0.02,100.0,WeatherDisplay:10.37,2013-07-25 15:03:00,
2013-07-25 11:08:00,60.0,-21.4,30.04,North,0,0.0,0.0,3,0.02,BKN,,0.02,97.0,WeatherDisplay:10.37,2013-07-25 15:08:00,
2013-07-25 11:13:00,60.0,-21.4,30.04,North,0,0.0,0.0,3,0.03,RA,,0.03,105.0,WeatherDisplay:10.37,2013-07-25 15:13:00,
2013-07-25 11:18:00,60.0,-21.4,30.04,North,0,0.0,0.0,3,0.03,RA,,0.03,98.0,WeatherDisplay:10.37,2013-07-25 15:18:00,
2013-07-25 11:23:00,60.1,-21.3,30.05,North,0,0.0,0.0,3,0.03,BKN,,0.03,83.0,WeatherDisplay:10.37,2013-07-25 15:23:00,
2013-07-25 11:28:00,60.2,-21.2,30.05,North,0,0.0,0.0,3,0.03,BKN,,0.03,72.0,WeatherDisplay:10.37,2013-07-25 15:28:00,
2013-07-25 11:33:00,60.2,-21.2,30.05,North,0,0.0,0.0,3,0.03,BKN,,0.03,58.0,WeatherDisplay:10.37,2013-07-25 15:33:00,
2013-07-25 11:38:00,60.2,-21.2,30.05,North,0,0.0,0.0,3,0.03,OVC,,0.03,54.0,WeatherDisplay:10.37,2013-07-25 15:38:00,
2013-07-25 11:43:00,60.1,-21.3,30.05,North,0,0.0,0.0,3,0.02,OVC,,0.03,40.0,WeatherDisplay:10.37,2013-07-25 15:43:00,
2013-07-25 11:48:00,60.0,-21.4,30.06,North,0,0.0,0.0,3,0.01,OVC,,0.03,47.0,WeatherDisplay:10.37,2013-07-25 15:48:00,
2013-07-25 11:53:00,60.0,-21.4,30.05,North,0,0.0,0.0,3,0.01,OVC,,0.03,62.0,WeatherDisplay:10.37,2013-07-25 15:53:00,
2013-07-25 11:58:00,60.0,-21.4,30.05,North,0,0.0,0.0,3,0.01,OVC,,0.03,65.0,WeatherDisplay:10.37,2013-07-25 15:58:00,
2013-07-25 12:03:00,60.0,-21.4,30.05,North,0,0.0,0.0,3,0.01,BKN,,0.03,81.0,WeatherDisplay:10.37,2013-07-25 16:03:00,
2013-07-25 12:08:00,60.0,-21.4,30.05,North,0,0.0,0.0,3,0.01,BKN,,0.03,83.0,WeatherDisplay:10.37,2013-07-25 16:08:00,
2013-07-25 12:13:00,60.0,-21.4,30.05,North,0,0.0,0.0,3,0.00,BKN,,0.03,70.0,WeatherDisplay:10.37,2013-07-25 16:13:00,
2013-07-25 12:18:00,60.1,-21.3,30.05,North,0,0.0,0.0,3,0.00,BKN,,0.03,76.0,WeatherDisplay:10.37,2013-07-25 16:18:00,
2013-07-25 12:23:00,60.1,-21.3,30.05,North,0,0.0,0.0,3,0.00,BKN,,0.03,79.0,WeatherDisplay:10.37,2013-07-25 16:23:00,
2013-07-25 12:28:00,60.1,-21.3,30.05,North,0,0.0,0.0,3,0.00,BKN,,0.03,95.0,WeatherDisplay:10.37,2013-07-25 16:28:00,
2013-07-25 12:33:00,60.1,-21.3,30.05,North,0,0.0,0.0,3,0.00,BKN,,0.03,83.0,WeatherDisplay:10.37,2013-07-25 16:33:00,
2013-07-25 12:38:00,60.1,-21.3,30.05,North,0,0.0,0.0,3,0.00,BKN,,0.03,91.0,WeatherDisplay:10.37,2013-07-25 16:38:00,
2013-07-25 12:43:00,60.2,-21.2,30.05,North,0,0.0,0.0,3,0.00,BKN,,0.03,84.0,WeatherDisplay:10.37,2013-07-25 16:43:00,
2013-07-25 12:48:00,60.2,-21.2,30.05,North,0,0.0,0.0,3,0.00,BKN,,0.03,97.0,WeatherDisplay:10.37,2013-07-25 16:48:00,
2013-07-25 12:53:00,60.2,-21.2,30.05,North,0,0.0,0.0,3,0.00,BKN,,0.03,109.0,WeatherDisplay:10.37,2013-07-25 16:53:00,
2013-07-25 12:58:00,60.1,-21.3,30.05,North,0,0.0,0.0,3,0.00,BKN,,0.03,113.0,WeatherDisplay:10.37,2013-07-25 16:58:00,
2013-07-25 13:03:00,60.2,-21.2,30.05,North,0,0.0,0.0,3,0.00,BKN,,0.03,123.0,WeatherDisplay:10.37,2013-07-25 17:03:00,
2013-07-25 13:08:00,60.2,-21.2,30.05,North,0,0.0,0.0,3,0.00,BKN,,0.03,105.0,WeatherDisplay:10.37,2013-07-25 17:08:00,
2013-07-25 13:13:00,60.3,-21.2,30.05,North,0,0.0,0.0,3,0.00,BKN,,0.03,95.0,WeatherDisplay:10.37,2013-07-25 17:13:00,
2013-07-25 13:18:00,60.3,-21.2,30.05,North,0,0.0,0.0,3,0.00,BKN,,0.03,77.0,WeatherDisplay:10.37,2013-07-25 17:18:00,
2013-07-25 13:23:00,60.3,-21.2,30.05,North,0,0.0,0.0,3,0.00,BKN,,0.03,72.0,WeatherDisplay:10.37,2013-07-25 17:23:00,
2013-07-25 13:28:00,60.2,-21.2,30.05,North,0,0.0,0.0,3,0.00,BKN,,0.03,69.0,WeatherDisplay:10.37,2013-07-25 17:28:00,
2013-07-25 13:33:00,60.3,-21.2,30.05,North,0,0.0,0.0,3,0.00,BKN,,0.03,72.0,WeatherDisplay:10.37,2013-07-25 17:33:00,
2013-07-25 13:38:00,60.2,-21.2,30.04,North,0,0.0,0.0,3,0.00,BKN,,0.03,65.0,WeatherDisplay:10.37,2013-07-25 17:38:00,
2013-07-25 13:43:00,60.2,-21.2,30.05,North,0,0.0,0.0,3,0.00,OVC,,0.03,53.0,WeatherDisplay:10.37,2013-07-25 17:43:00,
2013-07-25 13:44:00,60.2,-21.2,30.05,North,0,0.0,0.0,3,0.00,OVC,,0.03,51.0,WeatherDisplay:10.37,2013-07-25 17:44:00,
2013-07-25 13:49:00,60.1,-21.3,30.05,North,0,0.0,0.0,3,0.00,OVC,,0.03,42.0,WeatherDisplay:10.37,2013-07-25 17:49:00,
2013-07-25 13:54:00,60.0,-21.4,30.05,North,0,0.0,0.0,3,0.00,OVC,,0.03,53.0,WeatherDisplay:10.37,2013-07-25 17:54:00,
2013-07-25 13:59:00,59.9,-21.4,30.04,North,0,0.0,0.0,3,0.00,OVC,,0.03,56.0,WeatherDisplay:10.37,2013-07-25 17:59:00,
2013-07-25 14:04:00,59.9,-21.4,30.04,North,0,0.0,0.0,3,0.00,BKN,,0.03,77.0,WeatherDisplay:10.37,2013-07-25 18:04:00,
2013-07-25 14:09:00,59.8,-21.5,30.04,North,0,0.0,0.0,3,0.00,BKN,,0.03,67.0,WeatherDisplay:10.37,2013-07-25 18:09:00,
2013-07-25 14:14:00,59.8,-21.5,30.04,North,0,0.0,0.0,3,0.00,BKN,,0.03,70.0,WeatherDisplay:10.37,2013-07-25 18:14:00,
2013-07-25 14:19:00,59.9,-21.4,30.04,North,0,0.0,0.0,3,0.00,BKN,,0.03,88.0,WeatherDisplay:10.37,2013-07-25 18:19:00,
2013-07-25 14:24:00,59.9,-21.4,30.05,North,0,0.0,0.0,3,0.00,BKN,,0.03,91.0,WeatherDisplay:10.37,2013-07-25 18:24:00,
2013-07-25 14:29:00,60.0,-21.4,30.04,North,0,0.0,0.0,3,0.00,BKN,,0.03,100.0,WeatherDisplay:10.37,2013-07-25 18:29:00,
2013-07-25 14:34:00,60.0,-21.4,30.04,North,0,0.0,0.0,3,0.00,BKN,,0.03,95.0,WeatherDisplay:10.37,2013-07-25 18:34:00,
2013-07-25 14:39:00,60.1,-21.3,30.05,North,0,0.0,0.0,3,0.00,BKN,,0.03,107.0,WeatherDisplay:10.37,2013-07-25 18:39:00,
2013-07-25 14:44:00,60.0,-21.4,30.04,North,0,0.0,0.0,3,0.00,BKN,,0.03,102.0,WeatherDisplay:10.37,2013-07-25 18:44:00,
2013-07-25 14:49:00,60.1,-21.3,30.04,North,0,0.0,0.0,3,0.00,BKN,,0.03,95.0,WeatherDisplay:10.37,2013-07-25 18:49:00,
2013-07-25 14:54:00,60.2,-21.2,30.05,North,0,0.0,0.0,3,0.00,BKN,,0.03,83.0,WeatherDisplay:10.37,2013-07-25 18:54:00,
2013-07-25 14:59:00,60.3,-21.2,30.04,North,0,0.0,0.0,3,0.00,BKN,,0.03,77.0,WeatherDisplay:10.37,2013-07-25 18:59:00,
2013-07-25 15:04:00,60.2,-21.2,30.04,North,0,0.0,0.0,3,0.01,RA,,0.04,58.0,WeatherDisplay:10.37,2013-07-25 19:04:00,
2013-07-25 15:09:00,60.2,-21.2,30.05,North,0,0.0,0.0,3,0.02,RA,,0.05,35.0,WeatherDisplay:10.37,2013-07-25 19:09:00,
2013-07-25 15:14:00,60.0,-21.4,30.05,North,0,0.0,0.0,3,0.03,RA,,0.06,19.0,WeatherDisplay:10.37,2013-07-25 19:14:00,
2013-07-25 15:19:00,60.0,-21.4,30.05,North,0,0.0,0.0,3,0.03,RA,,0.06,16.0,WeatherDisplay:10.37,2013-07-25 19:19:00,
2013-07-25 15:24:00,59.9,-21.4,30.05,North,0,0.0,0.0,3,0.04,RA,,0.07,26.0,WeatherDisplay:10.37,2013-07-25 19:24:00,
2013-07-25 15:29:00,59.9,-21.4,30.05,North,0,0.0,0.0,3,0.05,RA,,0.08,35.0,WeatherDisplay:10.37,2013-07-25 19:29:00,
2013-07-25 15:34:00,59.9,-21.4,30.05,North,0,0.0,0.0,3,0.06,RA,,0.09,28.0,WeatherDisplay:10.37,2013-07-25 19:34:00,
2013-07-25 15:39:00,59.8,-21.5,30.05,North,0,0.0,0.0,3,0.08,RA,,0.11,16.0,WeatherDisplay:10.37,2013-07-25 19:39:00,
2013-07-25 15:44:00,59.8,-21.5,30.04,North,0,0.0,0.0,3,0.10,RA,,0.13,25.0,WeatherDisplay:10.37,2013-07-25 19:44:00,
2013-07-25 15:49:00,59.8,-21.5,30.04,North,0,0.0,0.0,3,0.11,RA,,0.15,25.0,WeatherDisplay:10.37,2013-07-25 19:49:00,
2013-07-25 15:54:00,59.8,-21.5,30.05,North,0,0.0,0.0,3,0.13,RA,,0.16,21.0,WeatherDisplay:10.37,2013-07-25 19:54:00,
2013-07-25 15:59:00,59.7,-21.6,30.05,North,0,0.0,0.0,3,0.16,RA,,0.19,18.0,WeatherDisplay:10.37,2013-07-25 19:59:00,
2013-07-25 16:04:00,59.6,-21.6,30.05,North,0,0.0,0.0,3,0.17,RA,,0.21,26.0,WeatherDisplay:10.37,2013-07-25 20:04:00,
2013-07-25 16:09:00,59.6,-21.6,30.05,North,0,0.0,0.0,3,0.16,RA,,0.21,25.0,WeatherDisplay:10.37,2013-07-25 20:09:00,
2013-07-25 16:14:00,59.6,-21.6,30.05,North,0,0.0,0.0,3,0.16,RA,,0.22,26.0,WeatherDisplay:10.37,2013-07-25 20:14:00,
2013-07-25 16:19:00,59.5,-21.7,30.05,North,0,0.0,0.0,3,0.17,RA,,0.23,28.0,WeatherDisplay:10.37,2013-07-25 20:19:00,
2013-07-25 16:24:00,59.5,-21.7,30.05,North,0,0.0,0.0,3,0.16,RA,,0.23,16.0,WeatherDisplay:10.37,2013-07-25 20:24:00,
2013-07-25 16:29:00,59.3,-21.8,30.05,North,0,0.0,0.0,3,0.16,RA,,0.24,16.0,WeatherDisplay:10.37,2013-07-25 20:29:00,
2013-07-25 16:34:00,59.3,-21.8,30.05,North,0,0.0,0.0,3,0.16,RA,,0.25,16.0,WeatherDisplay:10.37,2013-07-25 20:34:00,
2013-07-25 16:39:00,59.2,-21.9,30.04,North,0,0.0,0.0,3,0.14,RA,,0.25,21.0,WeatherDisplay:10.37,2013-07-25 20:39:00,
2013-07-25 16:44:00,59.2,-21.9,30.05,North,0,0.0,0.0,3,0.13,RA,,0.26,26.0,WeatherDisplay:10.37,2013-07-25 20:44:00,
2013-07-25 16:49:00,59.2,-21.9,30.04,North,0,0.0,0.0,3,0.13,RA,,0.27,32.0,WeatherDisplay:10.37,2013-07-25 20:49:00,
2013-07-25 16:54:00,59.1,-22.0,30.04,North,0,0.0,0.0,3,0.20,RA,,0.37,39.0,WeatherDisplay:10.37,2013-07-25 20:54:00,
2013-07-25 16:59:00,59.1,-22.0,30.04,North,0,0.0,0.0,3,0.29,RA,,0.47,46.0,WeatherDisplay:10.37,2013-07-25 20:59:00,
2013-07-25 17:04:00,59.0,-22.0,30.05,North,0,0.0,0.0,3,0.36,RA,,0.56,42.0,WeatherDisplay:10.37,2013-07-25 21:04:00,
2013-07-25 17:09:00,58.9,-22.1,30.05,North,0,0.0,0.0,3,0.41,RA,,0.62,28.0,WeatherDisplay:10.37,2013-07-25 21:09:00,
2013-07-25 17:14:00,58.9,-22.1,30.05,North,0,0.0,0.0,3,0.42,RA,,0.64,33.0,WeatherDisplay:10.37,2013-07-25 21:14:00,
2013-07-25 17:19:00,58.8,-22.2,30.05,North,0,0.0,0.0,3,0.42,RA,,0.65,25.0,WeatherDisplay:10.37,2013-07-25 21:19:00,
2013-07-25 17:24:00,58.8,-22.2,30.05,North,0,0.0,0.0,3,0.42,RA,,0.65,28.0,WeatherDisplay:10.37,2013-07-25 21:24:00,
2013-07-25 17:29:00,58.8,-22.2,30.04,North,0,0.0,0.0,3,0.41,BKN,,0.65,35.0,WeatherDisplay:10.37,2013-07-25 21:29:00,
2013-07-25 17:34:00,58.8,-22.2,30.05,North,0,0.0,0.0,3,0.42,RA,,0.66,35.0,WeatherDisplay:10.37,2013-07-25 21:34:00,
2013-07-25 17:39:00,58.9,-22.1,30.04,North,0,0.0,0.0,3,0.41,RA,,0.66,35.0,WeatherDisplay:10.37,2013-07-25 21:39:00,
2013-07-25 17:44:00,58.9,-22.1,30.04,North,0,0.0,0.0,3,0.41,RA,,0.67,37.0,WeatherDisplay:10.37,2013-07-25 21:44:00,
2013-07-25 17:49:00,58.9,-22.1,30.04,North,0,0.0,0.0,3,0.40,RA,,0.67,39.0,WeatherDisplay:10.37,2013-07-25 21:49:00,
2013-07-25 17:54:00,58.8,-22.2,30.04,North,0,0.0,0.0,3,0.31,BKN,,0.67,42.0,WeatherDisplay:10.37,2013-07-25 21:54:00,
2013-07-25 17:59:00,58.9,-22.1,30.04,North,0,0.0,0.0,3,0.20,BKN,,0.67,35.0,WeatherDisplay:10.37,2013-07-25 21:59:00,
2013-07-25 18:04:00,58.9,-22.1,30.04,North,0,0.0,0.0,3,0.11,BKN,,0.67,30.0,WeatherDisplay:10.37,2013-07-25 22:04:00,
2013-07-25 18:09:00,58.9,-22.1,30.04,North,0,0.0,0.0,3,0.06,RA,,0.68,28.0,WeatherDisplay:10.37,2013-07-25 22:09:00,
2013-07-25 18:14:00,58.9,-22.1,30.04,North,0,0.0,0.0,3,0.04,RA,,0.68,28.0,WeatherDisplay:10.37,2013-07-25 22:14:00,
2013-07-25 18:19:00,59.0,-22.0,30.05,North,0,0.0,0.0,3,0.03,BKN,,0.68,26.0,WeatherDisplay:10.37,2013-07-25 22:19:00,
2013-07-25 18:24:00,58.9,-22.1,30.06,North,0,0.0,0.0,3,0.03,BKN,,0.68,16.0,WeatherDisplay:10.37,2013-07-25 22:24:00,
2013-07-25 18:29:00,58.9,-22.1,30.06,North,0,0.0,0.0,3,0.03,BKN,,0.68,19.0,WeatherDisplay:10.37,2013-07-25 22:29:00,
2013-07-25 18:34:00,58.9,-22.1,30.06,North,0,0.0,0.0,3,0.02,BKN,,0.68,21.0,WeatherDisplay:10.37,2013-07-25 22:34:00,
2013-07-25 18:39:00,58.8,-22.2,30.06,North,0,0.0,0.0,3,0.02,BKN,,0.68,19.0,WeatherDisplay:10.37,2013-07-25 22:39:00,
2013-07-25 18:44:00,58.9,-22.1,30.05,North,0,0.0,0.0,3,0.01,BKN,,0.68,19.0,WeatherDisplay:10.37,2013-07-25 22:44:00,
2013-07-25 18:49:00,58.9,-22.1,30.05,North,0,0.0,0.0,3,0.01,BKN,,0.68,21.0,WeatherDisplay:10.37,2013-07-25 22:49:00,
2013-07-25 18:54:00,58.9,-22.1,30.05,North,0,0.0,0.0,3,0.01,BKN,,0.68,25.0,WeatherDisplay:10.37,2013-07-25 22:54:00,
2013-07-25 18:59:00,58.9,-22.1,30.05,North,0,0.0,0.0,3,0.01,BKN,,0.68,21.0,WeatherDisplay:10.37,2013-07-25 22:59:00,
2013-07-25 19:04:00,58.9,-22.1,30.05,North,0,0.0,0.0,3,0.01,BKN,,0.68,19.0,WeatherDisplay:10.37,2013-07-25 23:04:00,
2013-07-25 19:09:00,58.9,-22.1,30.05,North,0,0.0,0.0,3,0.00,BKN,,0.68,21.0,WeatherDisplay:10.37,2013-07-25 23:09:00,
2013-07-25 19:14:00,58.9,-22.1,30.05,North,0,0.0,0.0,3,0.00,BKN,,0.68,21.0,WeatherDisplay:10.37,2013-07-25 23:14:00,
2013-07-25 19:19:00,58.9,-22.1,30.05,North,0,0.0,0.0,3,0.00,BKN,,0.68,12.0,WeatherDisplay:10.37,2013-07-25 23:19:00,
2013-07-25 19:24:00,58.9,-22.1,30.06,North,0,0.0,0.0,3,0.00,BKN,,0.68,7.0,WeatherDisplay:10.37,2013-07-25 23:24:00,
2013-07-25 19:29:00,58.8,-22.2,30.06,North,0,0.0,0.0,3,0.00,BKN,,0.68,7.0,WeatherDisplay:10.37,2013-07-25 23:29:00,
2013-07-25 19:34:00,58.7,-22.2,30.06,North,0,0.0,0.0,3,0.00,BKN,,0.68,9.0,WeatherDisplay:10.37,2013-07-25 23:34:00,
2013-07-25 19:39:00,58.6,-22.3,30.06,North,0,0.0,0.0,3,0.00,BKN,,0.68,9.0,WeatherDisplay:10.37,2013-07-25 23:39:00,
2013-07-25 19:44:00,58.6,-22.3,30.06,North,0,0.0,0.0,3,0.00,BKN,,0.68,9.0,WeatherDisplay:10.37,2013-07-25 23:44:00,
2013-07-25 19:49:00,58.6,-22.3,30.06,North,0,0.0,0.0,3,0.00,BKN,,0.68,5.0,WeatherDisplay:10.37,2013-07-25 23:49:00,
2013-07-25 19:54:00,58.5,-22.4,30.06,North,0,0.0,0.0,3,0.00,OVC,,0.68,0.0,WeatherDisplay:10.37,2013-07-25 23:54:00,
2013-07-25 19:59:00,58.5,-22.4,30.06,North,0,0.0,0.0,3,0.00,OVC,,0.68,0.0,WeatherDisplay:10.37,2013-07-25 23:59:00,
2013-07-25 20:04:00,58.5,-22.4,30.06,North,0,0.0,0.0,3,0.00,OVC,,0.68,0.0,WeatherDisplay:10.37,2013-07-26 00:04:00,
2013-07-25 20:09:00,58.5,-22.4,30.05,North,0,0.0,0.0,3,0.00,OVC,,0.68,0.0,WeatherDisplay:10.37,2013-07-26 00:09:00,
2013-07-25 20:14:00,58.4,-22.5,30.05,North,0,0.0,0.0,3,0.00,OVC,,0.68,0.0,WeatherDisplay:10.37,2013-07-26 00:14:00,
2013-07-25 20:19:00,58.4,-22.5,30.05,North,0,0.0,0.0,3,0.00,OVC,,0.68,0.0,WeatherDisplay:10.37,2013-07-26 00:19:00,
2013-07-25 20:24:00,58.4,-22.5,30.05,North,0,0.0,0.0,3,0.00,OVC,,0.68,0.0,WeatherDisplay:10.37,2013-07-26 00:24:00,
2013-07-25 20:29:00,58.4,-22.5,30.05,North,0,0.0,0.0,3,0.00,OVC,,0.68,0.0,WeatherDisplay:10.37,2013-07-26 00:29:00,
2013-07-25 20:34:00,58.3,-22.5,30.05,North,0,0.0,0.0,3,0.00,OVC,,0.68,0.0,WeatherDisplay:10.37,2013-07-26 00:34:00,
2013-07-25 20:39:00,58.3,-22.5,30.05,North,0,0.0,0.0,3,0.00,OVC,,0.68,0.0,WeatherDisplay:10.37,2013-07-26 00:39:00,
2013-07-25 20:44:00,58.3,-22.5,30.05,North,0,0.0,0.0,3,0.00,CLR,,0.68,0.0,WeatherDisplay:10.37,2013-07-26 00:44:00,
2013-07-25 20:49:00,58.3,-22.5,30.05,North,0,0.0,0.0,3,0.00,CLR,,0.68,0.0,WeatherDisplay:10.37,2013-07-26 00:49:00,
2013-07-25 20:54:00,58.3,-22.5,30.05,North,0,0.0,0.0,3,0.00,CLR,,0.68,0.0,WeatherDisplay:10.37,2013-07-26 00:54:00,
2013-07-25 20:59:00,58.3,-22.5,30.05,North,0,0.0,0.0,3,0.00,CLR,,0.68,0.0,WeatherDisplay:10.37,2013-07-26 00:59:00,
2013-07-25 21:04:00,58.3,-22.5,30.05,North,0,0.0,0.0,3,0.00,CLR,,0.68,0.0,WeatherDisplay:10.37,2013-07-26 01:04:00,
2013-07-25 21:09:00,58.3,-22.5,30.05,North,0,0.0,0.0,3,0.00,CLR,,0.68,0.0,WeatherDisplay:10.37,2013-07-26 01:09:00,
2013-07-25 21:14:00,58.3,-22.5,30.05,North,0,0.0,0.0,3,0.00,CLR,,0.68,0.0,WeatherDisplay:10.37,2013-07-26 01:14:00,
2013-07-25 21:19:00,58.3,-22.5,30.05,North,0,0.0,0.0,3,0.00,CLR,,0.68,0.0,WeatherDisplay:10.37,2013-07-26 01:19:00,
2013-07-25 21:24:00,58.3,-22.5,30.05,North,0,0.0,0.0,3,0.00,CLR,,0.68,0.0,WeatherDisplay:10.37,2013-07-26 01:24:00,
2013-07-25 21:29:00,58.3,-22.5,30.05,North,0,0.0,0.0,3,0.00,CLR,,0.68,0.0,WeatherDisplay:10.37,2013-07-26 01:29:00,
2013-07-25 21:34:00,58.3,-22.5,30.05,North,0,0.0,0.0,3,0.00,CLR,,0.68,0.0,WeatherDisplay:10.37,2013-07-26 01:34:00,
2013-07-25 21:39:00,58.3,-22.5,30.05,North,0,0.0,0.0,3,0.00,CLR,,0.68,0.0,WeatherDisplay:10.37,2013-07-26 01:39:00,
2013-07-25 21:44:00,58.4,-22.5,30.05,North,0,0.0,0.0,3,0.00,CLR,,0.68,0.0,WeatherDisplay:10.37,2013-07-26 01:44:00,
2013-07-25 21:49:00,58.4,-22.5,30.05,North,0,0.0,0.0,3,0.00,CLR,,0.68,0.0,WeatherDisplay:10.37,2013-07-26 01:49:00,
2013-07-25 21:54:00,58.4,-22.5,30.05,North,0,0.0,0.0,3,0.00,CLR,,0.68,0.0,WeatherDisplay:10.37,2013-07-26 01:54:00,
2013-07-25 21:59:00,58.4,-22.5,30.05,North,0,0.0,0.0,3,0.00,CLR,,0.68,0.0,WeatherDisplay:10.37,2013-07-26 01:59:00,
2013-07-25 22:04:00,58.4,-22.5,30.05,North,0,0.0,0.0,3,0.00,CLR,,0.68,0.0,WeatherDisplay:10.37,2013-07-26 02:04:00,
2013-07-25 22:09:00,58.4,-22.5,30.05,North,0,0.0,0.0,3,0.00,CLR,,0.68,0.0,WeatherDisplay:10.37,2013-07-26 02:09:00,
2013-07-25 22:14:00,58.4,-22.5,30.05,North,0,0.0,0.0,3,0.00,CLR,,0.68,0.0,WeatherDisplay:10.37,2013-07-26 02:14:00,
2013-07-25 22:19:00,58.5,-22.4,30.05,North,0,0.0,0.0,3,0.01,RA,,0.69,0.0,WeatherDisplay:10.37,2013-07-26 02:19:00,
2013-07-25 22:24:00,58.5,-22.4,30.05,North,0,0.0,0.0,3,0.01,RA,,0.69,0.0,WeatherDisplay:10.37,2013-07-26 02:24:00,
2013-07-25 22:29:00,58.5,-22.4,30.04,North,0,0.0,0.0,3,0.01,CLR,,0.69,0.0,WeatherDisplay:10.37,2013-07-26 02:29:00,
2013-07-25 22:34:00,58.5,-22.4,30.04,North,0,0.0,0.0,3,0.01,CLR,,0.69,0.0,WeatherDisplay:10.37,2013-07-26 02:34:00,
2013-07-25 22:39:00,58.6,-22.3,30.04,North,0,0.0,0.0,3,0.01,CLR,,0.69,0.0,WeatherDisplay:10.37,2013-07-26 02:39:00,
2013-07-25 22:44:00,58.6,-22.3,30.04,North,0,0.0,0.0,3,0.01,CLR,,0.69,0.0,WeatherDisplay:10.37,2013-07-26 02:44:00,
2013-07-25 22:49:00,58.6,-22.3,30.04,North,0,0.0,0.0,3,0.01,CLR,,0.69,0.0,WeatherDisplay:10.37,2013-07-26 02:49:00,
2013-07-25 22:54:00,58.7,-22.2,30.04,North,0,0.0,0.0,3,0.01,CLR,,0.69,0.0,WeatherDisplay:10.37,2013-07-26 02:54:00,
2013-07-25 22:59:00,58.7,-22.2,30.04,North,0,0.0,0.0,3,0.01,CLR,,0.69,0.0,WeatherDisplay:10.37,2013-07-26 02:59:00,
2013-07-25 23:04:00,58.7,-22.2,30.04,North,0,0.0,0.0,3,0.01,CLR,,0.69,0.0,WeatherDisplay:10.37,2013-07-26 03:04:00,
2013-07-25 23:09:00,58.7,-22.2,30.03,North,0,0.0,0.0,3,0.01,CLR,,0.69,0.0,WeatherDisplay:10.37,2013-07-26 03:09:00,
2013-07-25 23:14:00,58.7,-22.2,30.03,North,0,0.0,0.0,3,0.01,CLR,,0.69,0.0,WeatherDisplay:10.37,2013-07-26 03:14:00,
2013-07-25 23:19:00,58.8,-22.2,30.03,North,0,0.0,0.0,3,0.00,CLR,,0.69,0.0,WeatherDisplay:10.37,2013-07-26 03:19:00,
2013-07-25 23:24:00,58.8,-22.2,30.03,North,0,0.0,0.0,3,0.00,CLR,,0.69,0.0,WeatherDisplay:10.37,2013-07-26 03:24:00,
2013-07-25 23:29:00,58.8,-22.2,30.03,North,0,0.0,0.0,3,0.00,CLR,,0.69,0.0,WeatherDisplay:10.37,2013-07-26 03:29:00,
2013-07-25 23:34:00,58.8,-22.2,30.03,North,0,0.0,0.0,3,0.00,CLR,,0.69,0.0,WeatherDisplay:10.37,2013-07-26 03:34:00,
2013-07-25 23:39:00,58.8,-22.2,30.03,North,0,0.0,0.0,3,0.00,CLR,,0.69,0.0,WeatherDisplay:10.37,2013-07-26 03:39:00,
2013-07-25 23:44:00,58.9,-22.1,30.03,North,0,0.0,0.0,3,0.00,CLR,,0.69,0.0,WeatherDisplay:10.37,2013-07-26 03:44:00,
2013-07-25 23:49:00,58.9,-22.1,30.02,North,0,0.0,0.0,3,0.00,CLR,,0.69,0.0,WeatherDisplay:10.37,2013-07-26 03:49:00,
2013-07-25 23:54:00,58.9,-22.1,30.02,North,0,0.0,0.0,3,0.00,CLR,,0.69,0.0,WeatherDisplay:10.37,2013-07-26 03:54:00,
2013-07-25 23:59:00,58.9,-22.1,30.02,North,0,0.0,0.0,3,0.00,CLR,,0.69,0.0,WeatherDisplay:10.37,2013-07-26 03:59:00,